When you browse on this site, cookies collect data to enhance your experience and personalize the content and advertising you see.
Visit our Privacy Policy to learn more. By continuing to use the site, you agree to this use of cookies and data.
  • In Portugal
  • List of Countries
  • For 7 days
  • Water Temperature
  • Satellite Maps
  • Weather Map
  • Weather Widgets
  • user-avatar
    Login

    Hourly Weather El Guna

    Today, 25 March, Monday

    Time Temperature Precipitation Wind Pressure Humidity
    00:00 +19°C° 0 mm 6 mps 728 mmHg 36%
    01:00 +19°C° 0 mm 5 mps 728 mmHg 37%
    02:00 +17°C° 0 mm 5 mps 727 mmHg 37%
    03:00 +16°C° 0 mm 5 mps 727 mmHg 41%
    04:00 +15°C° 0 mm 5 mps 728 mmHg 44%
    05:00 +15°C° 0 mm 5 mps 728 mmHg 47%
    06:00 +15°C° 0 mm 6 mps 728 mmHg 44%
    07:00 +16°C° 0 mm 7 mps 728 mmHg 41%
    08:00 +16°C° 0 mm 8 mps 728 mmHg 36%
    09:00 +17°C° 0 mm 8 mps 729 mmHg 31%
    10:00 +18°C° 0 mm 8 mps 729 mmHg 26%
    11:00 +20°C° 0 mm 8 mps 729 mmHg 21%
    12:00 +21°C° 0 mm 8 mps 729 mmHg 21%
    13:00 +21°C° 0 mm 8 mps 729 mmHg 20%
    14:00 +22°C° 0 mm 9 mps 729 mmHg 18%
    15:00 +22°C° 0 mm 8 mps 729 mmHg 20%
    16:00 +21°C° 0 mm 8 mps 729 mmHg 22%
    17:00 +21°C° 0 mm 8 mps 729 mmHg 23%
    18:00 +20°C° 0 mm 7 mps 730 mmHg 26%
    19:00 +19°C° 0 mm 6 mps 730 mmHg 29%
    20:00 +17°C° 0 mm 5 mps 730 mmHg 31%
    21:00 +18°C° 0 mm 4 mps 731 mmHg 33%
    22:00 +17°C° 0 mm 3 mps 731 mmHg 34%
    23:00 +17°C° 0 mm 3 mps 731 mmHg 36%

    Tomorrow, 26 March, Tuesday

    Time Temperature Precipitation Wind Pressure Humidity
    00:00 +16°C° 0 mm 3 mps 731 mmHg 38%
    01:00 +16°C° 0 mm 3 mps 731 mmHg 39%
    02:00 +16°C° 0 mm 2 mps 732 mmHg 41%
    03:00 +15°C° 0 mm 2 mps 732 mmHg 43%
    04:00 +15°C° 0 mm 2 mps 732 mmHg 45%
    05:00 +15°C° 0 mm 2 mps 732 mmHg 46%
    06:00 +16°C° 0 mm 3 mps 733 mmHg 43%
    07:00 +17°C° 0 mm 3 mps 733 mmHg 40%
    08:00 +18°C° 0 mm 3 mps 734 mmHg 37%
    09:00 +19°C° 0 mm 3 mps 734 mmHg 33%
    10:00 +20°C° 0 mm 3 mps 734 mmHg 28%
    11:00 +21°C° 0 mm 3 mps 734 mmHg 24%
    12:00 +22°C° 0 mm 3 mps 734 mmHg 21%
    13:00 +24°C° 0 mm 3 mps 734 mmHg 19%
    14:00 +25°C° 0 mm 4 mps 734 mmHg 17%
    15:00 +25°C° 0 mm 4 mps 734 mmHg 19%
    16:00 +23°C° 0 mm 4 mps 733 mmHg 21%
    17:00 +23°C° 0 mm 4 mps 733 mmHg 22%
    18:00 +22°C° 0 mm 3 mps 734 mmHg 27%
    19:00 +21°C° 0 mm 2 mps 734 mmHg 32%
    20:00 +20°C° 0 mm 2 mps 735 mmHg 36%
    21:00 +20°C° 0 mm 1 mps 735 mmHg 39%
    22:00 +20°C° 0 mm 1 mps 735 mmHg 41%
    23:00 +19°C° 0 mm 1 mps 735 mmHg 44%

    Day after tomorrow, 27 March, Wednesday

    Time Temperature Precipitation Wind Pressure Humidity
    00:00 +19°C° 0 mm 1 mps 735 mmHg 44%
    01:00 +16°C° 0 mm 0 mps 735 mmHg 44%
    02:00 +16°C° 0 mm 0 mps 735 mmHg 44%
    03:00 +16°C° 0 mm 1 mps 735 mmHg 43%
    04:00 +16°C° 0 mm 1 mps 735 mmHg 42%
    05:00 +16°C° 0 mm 1 mps 735 mmHg 41%
    06:00 +18°C° 0 mm 1 mps 736 mmHg 37%
    07:00 +19°C° 0 mm 1 mps 737 mmHg 33%
    08:00 +21°C° 0 mm 1 mps 738 mmHg 29%
    09:00 +21°C° 0 mm 2 mps 738 mmHg 26%
    10:00 +23°C° 0 mm 2 mps 738 mmHg 24%
    11:00 +24°C° 0 mm 3 mps 738 mmHg 22%
    12:00 +24°C° 0 mm 3 mps 738 mmHg 21%
    13:00 +25°C° 0 mm 3 mps 737 mmHg 20%
    14:00 +26°C° 0 mm 3 mps 737 mmHg 18%
    15:00 +25°C° 0 mm 4 mps 737 mmHg 20%
    16:00 +25°C° 0 mm 4 mps 737 mmHg 21%
    17:00 +25°C° 0 mm 5 mps 736 mmHg 22%
    18:00 +23°C° 0 mm 4 mps 737 mmHg 26%
    19:00 +22°C° 0 mm 4 mps 737 mmHg 29%
    20:00 +21°C° 0 mm 3 mps 738 mmHg 33%
    21:00 +20°C° 0 mm 2 mps 738 mmHg 33%
    22:00 +20°C° 0 mm 2 mps 738 mmHg 34%
    23:00 +20°C° 0 mm 1 mps 738 mmHg 34%

    28 March, Thursday

    Time Temperature Precipitation Wind Pressure Humidity
    00:00 +20°C° 0 mm 1 mps 737 mmHg 34%
    01:00 +19°C° 0 mm 1 mps 737 mmHg 34%
    02:00 +19°C° 0 mm 1 mps 737 mmHg 35%
    03:00 +18°C° 0 mm 1 mps 737 mmHg 35%
    04:00 +18°C° 0 mm 1 mps 737 mmHg 36%
    05:00 +18°C° 0 mm 1 mps 737 mmHg 36%
    06:00 +18°C° 0 mm 2 mps 737 mmHg 35%
    07:00 +19°C° 0 mm 2 mps 738 mmHg 34%
    08:00 +20°C° 0 mm 2 mps 738 mmHg 32%
    09:00 +21°C° 0 mm 2 mps 738 mmHg 29%
    10:00 +23°C° 0 mm 2 mps 738 mmHg 25%
    11:00 +25°C° 0 mm 3 mps 738 mmHg 22%
    12:00 +25°C° 0 mm 3 mps 738 mmHg 20%
    13:00 +26°C° 0 mm 3 mps 737 mmHg 19%
    14:00 +27°C° 0 mm 3 mps 736 mmHg 17%
    15:00 +26°C° 0 mm 3 mps 736 mmHg 18%
    16:00 +26°C° 0 mm 3 mps 735 mmHg 18%
    17:00 +26°C° 0 mm 3 mps 735 mmHg 19%
    18:00 +25°C° 0 mm 2 mps 735 mmHg 21%
    19:00 +24°C° 0 mm 1 mps 735 mmHg 23%
    20:00 +21°C° 0 mm 0 mps 736 mmHg 25%
    21:00 +20°C° 0 mm 0 mps 735 mmHg 25%
    22:00 +20°C° 0 mm 0 mps 735 mmHg 26%
    23:00 +19°C° 0 mm 0 mps 735 mmHg 26%

    29 March, Friday

    Time Temperature Precipitation Wind Pressure Humidity
    00:00 +19°C° 0 mm 0 mps 734 mmHg 26%
    01:00 +18°C° 0 mm 0 mps 734 mmHg 26%
    02:00 +18°C° 0 mm 0 mps 733 mmHg 27%
    03:00 +20°C° 0 mm 1 mps 733 mmHg 27%
    04:00 +19°C° 0 mm 1 mps 733 mmHg 27%
    05:00 +19°C° 0 mm 1 mps 733 mmHg 27%
    06:00 +19°C° 0 mm 0 mps 733 mmHg 24%
    07:00 +21°C° 0 mm 0 mps 734 mmHg 20%
    08:00 +23°C° 0 mm 0 mps 734 mmHg 17%
    09:00 +26°C° 0 mm 1 mps 734 mmHg 15%
    10:00 +28°C° 0 mm 1 mps 733 mmHg 14%
    11:00 +29°C° 0 mm 2 mps 733 mmHg 12%
    12:00 +30°C° 0 mm 2 mps 732 mmHg 12%
    13:00 +31°C° 0 mm 3 mps 732 mmHg 12%
    14:00 +31°C° 0 mm 3 mps 731 mmHg 12%
    15:00 +31°C° 0 mm 3 mps 731 mmHg 13%
    16:00 +32°C° 0 mm 4 mps 730 mmHg 14%
    17:00 +32°C° 0 mm 4 mps 730 mmHg 15%
    18:00 +29°C° 0 mm 3 mps 730 mmHg 17%
    19:00 +28°C° 0 mm 3 mps 730 mmHg 19%
    20:00 +27°C° 0 mm 2 mps 730 mmHg 21%
    21:00 +27°C° 0 mm 2 mps 730 mmHg 21%
    22:00 +26°C° 0 mm 1 mps 730 mmHg 20%
    23:00 +26°C° 0 mm 1 mps 729 mmHg 20%

    30 March, Saturday

    Time Temperature Precipitation Wind Pressure Humidity
    00:00 +26°C° 0 mm 1 mps 729 mmHg 22%
    01:00 +25°C° 0 mm 1 mps 728 mmHg 23%
    02:00 +25°C° 0 mm 2 mps 727 mmHg 25%
    03:00 +24°C° 0 mm 2 mps 727 mmHg 25%
    04:00 +24°C° 0 mm 2 mps 727 mmHg 25%
    05:00 +24°C° 0 mm 2 mps 727 mmHg 25%
    06:00 +25°C° 0 mm 3 mps 727 mmHg 22%
    07:00 +27°C° 0 mm 3 mps 728 mmHg 19%
    08:00 +28°C° 0 mm 4 mps 728 mmHg 17%
    09:00 +29°C° 0 mm 5 mps 728 mmHg 18%
    10:00 +29°C° 0 mm 5 mps 728 mmHg 20%
    11:00 +29°C° 0 mm 6 mps 728 mmHg 22%
    12:00 +29°C° 0 mm 7 mps 728 mmHg 23%
    13:00 +29°C° 0 mm 8 mps 727 mmHg 24%
    14:00 +28°C° 0 mm 10 mps 727 mmHg 25%
    15:00 +27°C° 0 mm 10 mps 727 mmHg 25%
    16:00 +26°C° 0 mm 9 mps 727 mmHg 25%
    17:00 +24°C° 0 mm 9 mps 727 mmHg 25%
    18:00 +23°C° 0 mm 9 mps 728 mmHg 27%
    19:00 +22°C° 0 mm 9 mps 728 mmHg 29%
    20:00 +21°C° 0 mm 8 mps 728 mmHg 31%
    21:00 +20°C° 0 mm 8 mps 729 mmHg 33%
    22:00 +18°C° 0 mm 7 mps 729 mmHg 34%
    23:00 +17°C° 0 mm 7 mps 729 mmHg 35%
    Show more